Showing default

GLOBALSTAR M048, 25872

Orbit data source: Space-Track

GLOBALSTAR M048, 25872 is a payload satellite owned by Globalstar (US) in LEO that was launched on Sun, 25 Jul 1999 UTC via a DELTA 7420-10C launch vehicle from the Air Force Eastern Test Range (AFETR). Payload-class satellites include a variety of spacecraft equipped with specific instruments for various scientific and technological missions. These include communications satellites like Starlink; space stations such as the ISS; scientific satellites like the Hubble; Earth observation satellites from companies like Planet Labs, Umbra, and HawkEye 360; GPS; miniature CubeSats for education and research; and military/defense satellites.

Loading next visibility...
Identifier
25872, 1999-041A
Orbit
LEO
Country
Flag of UnknownUnknown / GLOB
Related business
Manufacturer
SS/Loral
Mission
Non-operational Commercial Communications
Bus & Motor
LS-400, LS-400 AOCS
Mass
450 kg wet, 380 kg dry
Launch date (UTC)
1999-07-25 (26 years ago)
Launch vehicle
DELTA 7420-10C
Launch site
Air Force Eastern Test Range (AFETR)
Object type
Payload
Rocket body
Debris
Shape & HBR
Box + 2 Pan, 6.0 m
Radar Cross Section
5.587 m², Large (>1 m²)

Expand to show TLE details & history
Last TLE update: 9 hours ago

TLE from 9 hours ago
0 GLOBALSTAR M048
1 25872U 99041A   25340.91812494 -.00000043  00000-0  73624-3 0  9992
2 25872  51.9381 285.9110 0013315 120.9289 358.7544 11.33860651144574
Epoch: 2025-12-06T22:02Z
TLE epoch observation values (Epoch: 2025-12-06T22:02:05.994Z)
Latitude
43.2776°
Longitude
12.2336°
Altitude
1,984.445 km
Speed
6.914 km/s
True Right ascension
03h 54m 47s
True Declination
43° 07' 52"
Sunlit
Object was in full shadow at epoch
Visualization orbit readout
Latitude
Unknown
Longitude
Unknown
Altitude
Unknown
Speed
Unknown
Apparent Right ascension
Unknown
Apparent Declination
Unknown
Sunlit
N/A
Visualization observer readout
Local Sidereal Time
05:05:24
Azimuth
Unknown
Elevation
Unknown
Doppler factor
Unknown
Orbital elements
Apogee altitude
2,002.802 km
Perigee altitude
1,980.513 km
Semi-major axis
8,369.795 km
Eccentricity
0.00133
Inclination
51.9381°
RAAN
285.911°
Arg. of periapsis
120.9289°
True anomaly
358.75108°
Mean anomaly
358.7544°
Eccentric anomaly
358.75274°
Mean motion
2.83446 °/min
Orbital period
127.01 mins
BSTAR
0.00073624
Loading maneuver chart data...
Computing Atmospheric mass density...
Loading historical data...
Loading historical data...
Loading historical data...
Loading historical data...
Loading historical data...
Loading historical data...
Loading historical data...
Other satellites on launch #41 in the year 1999 (1999-07-25 UTC)

Documentation

Showing up to 5 results
|